This demonstration page uses our WeatherBlox Daily Observations layout. Learn more.

Left ArrowRight Arrow

41.86663, -103.66717

Hourly Observations for September 9, 2018

Temp ( °F °C ) Dew Point ( °F °C ) Humidity (%) Winds ( mph kmh ) Pressure ( in mb ) Visibility ( mi km ) Precip ( " mm )
12:53 am 00:53 Clear 60 15.6 60 15.6 100 100 SE 9 15 29.88 1012 10 16 N/A
1:53 am 01:53 Clear 59 15 59 15 100 100 E 6 9 29.85 1011 10 16 N/A
2:53 am 02:53 Clear 59 15 59 15 100 100 NE 6 9 29.83 1010 10 16 N/A
3:53 am 03:53 Clear 59 15 59 15 100 100 SSE 6 9 29.82 1010 10 16 N/A
4:53 am 04:53 Clear 56 13.3 56 13.3 100 100 N N/A 29.83 1010 10 16 N/A
5:53 am 05:53 Clear 53 11.7 53 11.7 100 100 N N/A 29.84 1011 10 16 N/A
6:53 am 06:53 Sunny 53 11.7 53 11.7 100 100 E 3 6 29.88 1012 9 14 N/A
7:53 am 07:53 Sunny 59 15 59 15 100 100 N N/A 29.88 1012 10 16 N/A
8:53 am 08:53 Sunny 63 17.2 61 16.1 93 93 S 5 7 29.88 1012 10 16 N/A
9:53 am 09:53 Sunny 69 20.6 58 14.4 68 68 N N/A 29.88 1012 10 16 N/A
10:53 am 10:53 Sunny 75 23.9 57 13.9 54 54 N N/A 29.86 1011 10 16 N/A
11:53 am 11:53 Sunny 78 25.6 56 13.3 47 47 VRB 3 6 29.84 1010 10 16 N/A
12:53 pm 12:53 Sunny 83 28.3 53 11.7 36 36 N N/A 29.81 1009 10 16 N/A
1:53 pm 13:53 Sunny 86 30 48 8.9 27 27 undefined N/A 29.78 1009 10 16 N/A
2:53 pm 14:53 Sunny 88 31.1 48 8.9 25 25 ESE 9 15 29.75 1008 10 16 N/A
3:53 pm 15:53 Sunny 89 31.7 48 8.9 24 24 E 10 17 29.73 1007 10 16 N/A
4:53 pm 16:53 Sunny 87 30.6 47 8.3 25 25 E 6 9 29.74 1007 10 16 N/A
5:53 pm 17:53 Sunny 86 30 46 7.8 25 25 SE 6 9 29.75 1008 10 16 N/A
6:53 pm 18:53 Sunny 75 23.9 55 12.8 50 50 E 6 9 29.79 1009 10 16 N/A
7:53 pm 19:53 Clear 69 20.6 57 13.9 66 66 NE 3 6 29.80 1009 10 16 N/A
8:53 pm 20:53 Clear 66 18.9 54 12.2 65 65 NE 3 6 29.82 1010 10 16 N/A
9:53 pm 21:53 Clear 60 15.6 54 12.2 80 80 WNW 5 7 29.84 1010 9 14 N/A
10:53 pm 22:53 Clear 60 15.6 55 12.8 84 84 NE 9 15 29.84 1011 10 16 N/A
11:53 pm 23:53 Clear 58 14.4 55 12.8 90 90 ENE 3 6 29.84 1010 10 16 N/A

Powered by AerisWeather